Preview of NWS' New Version of Forecast
This preview is not operational and should not be used for support decisions.

Regional Weather Roundup (RWR)

Issued by National Weather Service (NWS)

                            
000
ASUS43 KLSX 211557
RWRMO 

WEATHER SUMMARY FOR MISSOURI
NATIONAL WEATHER SERVICE SPRINGFIELD MO
1100 AM CDT SAT SEP 21 2019

NOTE: "FAIR" INDICATES FEW OR NO CLOUDS BELOW 12,000 FEET WITH NO
       SIGNIFICANT WEATHER AND/OR OBSTRUCTIONS TO VISIBILITY.
       CURRENT SKY AND/OR WEATHER CONDITIONS ARE NOT AVAILABLE FOR
       CHILLICOTHE AND FARMINGTON.

MOZ001>031-035>038-043-044-053-054-211700-
...NORTHERN AND WESTERN MISSOURI...
  
CITY           SKY/WX    TMP DP  RH WIND       PRES   REMARKS
KANSAS CTY INT RAIN      75  73  93 S14       29.96S FOG              
LEE'S SUMMIT     N/A     78  70  76 S21G30    29.99F                  
ST JOSEPH      LGT RAIN  73  71  93 S14       29.94S FOG              
CHILLICOTHE      N/A     76  72  87 S10G20    29.99F                  
     
$$
MOZ066>068-077>081-088>096-101>105-211700-
...SOUTHWEST MISSOURI...
  
CITY           SKY/WX    TMP DP  RH WIND       PRES   REMARKS
SPRINGFIELD    PTSUNNY   80  68  66 S21G30    30.11S                  
JOPLIN         CLOUDY    83  69  62 S25G38    30.07F                  
BRANSON        PTSUNNY   77  68  73 S17       30.16F                  
               
$$
MOZ032>034-039>042-045>050-055>058-069>072-211700-
...CENTRAL MISSOURI...  
  
CITY           SKY/WX    TMP DP  RH WIND       PRES   REMARKS
COLUMBIA       NOT AVBL                                               
JEFFERSON CITY PTSUNNY   81  68  64 S14       30.07F                  
ROLLA          CLOUDY    79  67  66 S14G25    30.12F                  
SEDALIA        CLOUDY    76  70  82 S17G25    30.05F                  
WARRENSBURG    CLOUDY    75  68  78 S10       30.02S                  
               
$$
MOZ051-052-059>065-211700-
...EAST CENTRAL MISSOURI...
  
CITY           SKY/WX    TMP DP  RH WIND       PRES   REMARKS
ST LOUIS INTL  PTSUNNY   78  66  66 S17G26    30.13F                  
                   
$$
MOZ072>076-082>087-097>100-106>115-211700-
...SOUTH CENTRAL AND SOUTHEAST MISSOURI...
  
CITY           SKY/WX    TMP DP  RH WIND       PRES   REMARKS
CAPE GIRARDEAU FAIR      78  63  59 S10       30.20F                  
POPLAR BLUFF   FAIR      79  65  62 S9        30.19F                  
WEST PLAINS    CLOUDY    76  69  79 S6        30.19S                  
                                       
$$